LUDI TANCE-4 01A

Last updated on Sat Dec 13 2025 00:02:51 GMT+0000 (Coordinated Universal Time)

1 57624U 23120A 25345.81571911 -.00000168 00000+0 00000+0 0 9998 2 57624 15.2337 198.5976 0006363 79.7604 185.8408 1.00272811 8669
UTC large
Height (km)
Speed (km/s)
/
Latitude / Longitude
Inclination (degrees)
Orbital Period (minutes)
Azimuth
Elevation
Range (km)
Doppler Factor

Next 0 passes for location: London (51.5072 / 0.1276)

Sorry there are no passes over London.